Temp
13 13 13 12 12 12 12 12 12 11 11 11 11 11 11 11 10 10 10 10 10 10 10 11 10 10 10 10 11 11 11 11 11 11 11 11 11 11 11 11 11 11
13 13 13 12 12 12 12 12 12 12 11 11 11 11 11 11 10 10 10 10 10 10 10 11 10 10 10 10 11 11 11 11 11 11 11 11 11 11 11 11 11 11
13 13 13 13 13 12 12 12 12 12 12 11 11 11 11 11 11 10 10 10 10 10 10 10 10 10 10 10 11 11 11 11 11 11 11 11 11 11 11 11 11 11
13 13 13 13 13 13 12 12 12 12 12 12 11 11 11 11 11 11 11 10 10 10 10 11 10 11 11 11 11 11 11 11 11 11 11 11 11 11 11 11 11 11
13 13 13 13 13 13 12 12 12 12 12 12 12 11 11 11 11 11 11 11 10 10 11 11 11 11 11 11 11 11 11 11 11 11 11 11 11 11 11 11 11 11
13 13 13 13 13 13 13 13 12 12 12 12 12 12 11 11 12 12 11 11 11 11 11 11 11 11 11 11 11 11 11 11 11 11 11 11 11 11 11 11 11 11
13 13 13 13 13 13 13 13 13 12 12 12 12 12 11 11 12 12 12 11 11 11 11 11 11 11 11 11 11 11 11 11 11 12 12 12 12 12 12 12 12 12
14 13 13 13 13 13 13 13 13 13 12 12 12 12 12 11 12 12 12 11 11 11 11 11 11 11 11 11 11 11 11 11 11 12 12 12 12 12 12 12 12 12
13 13 13 13 13 13 13 13 13 13 13 12 12 12 12 12 11 12 12 12 11 11 11 11 11 11 11 12 12 11 11 11 11 12 12 12 12 12 12 12 12 12
13 13 13 14 14 14 14 13 13 13 13 13 13 12 12 12 12 12 12 12 12 12 12 12 12 12 12 12 12 12 12 12 12 12 12 12 12 12 12 12 12 12
14 14 14 14 14 14 14 14 13 13 13 13 13 13 13 12 12 12 12 12 12 12 12 12 12 12 12 12 12 12 12 12 12 12 12 12 12 12 12 12 12 12
14 14 14 14 14 14 14 14 14 13 13 13 13 13 13 13 13 12 12 12 12 12 12 12 12 12 12 12 12 12 12 12 12 12 12 12 12 12 12 12 12 12
14 14 14 14 14 14 14 14 14 13 13 13 13 13 13 13 13 13 13 12 12 12 12 12 12 12 12 12 12 12 12 12 13 13 13 13 13 13 13 12 12 12
14 14 14 14 14 14 14 14 14 14 13 13 13 13 13 13 13 13 13 13 13 12 12 12 12 12 12 12 12 12 13 13 13 13 13 13 13 13 13 12 12 12
14 14 14 14 14 14 14 14 14 14 14 14 13 14 13 13 13 13 13 13 13 13 13 13 12 12 13 13 13 13 13 13 13 13 13 13 13 13 12 12 12 12
14 14 14 14 14 14 14 14 14 14 14 14 14 14 14 13 13 13 13 13 13 13 13 13 13 13 13 13 13 13 13 13 13 13 13 13 13 12 12 12 12 12
14 14 14 14 14 14 14 14 14 14 14 14 14 14 14 14 14 14 14 13 13 13 13 13 13 13 13 13 13 13 13 13 13 13 13 13 13 12 12 12 12 12
15 15 15 15 15 15 15 14 14 14 14 14 14 14 14 14 14 14 14 14 14 14 13 13 13 13 13 13 13 13 13 13 13 13 13 13 13 13 13 13 13 13
15 15 15 15 15 15 15 15 15 15 15 15 15 14 14 14 14 14 14 14 14 14 14 14 14 14 14 14 14 13 13 13 13 13 13 13 13 13 13 13 13 13
16 15 15 15 15 15 15 15 15 15 15 15 15 15 15 15 15 14 14 14 14 14 14 14 14 14 14 14 14 14 14 13 13 13 13 13 13 13 13 13 13 13
16 16 16 15 15 15 15 15 15 15 15 15 15 15 15 15 15 15 15 15 15 15 14 14 14 14 14 14 14 14 14 13 13 13 13 13 13 13 13 13 13 13
16 16 16 16 16 16 15 15 15 15 15 15 15 15 15 15 15 15 15 15 15 15 15 15 15 14 14 14 14 14 13 13 13 13 13 13 13 13 13 13 13 13
16 16 16 16 16 16 16 16 15 15 15 15 15 15 15 15 15 15 15 15 15 15 15 15 15 14 14 14 14 14 13 13 13 13 13 13 13 13 13 13 14 14
17 17 17 16 16 16 16 16 16 16 15 15 15 15 15 15 15 15 15 15 15 15 15 15 15 14 14 14 14 14 13 13 13 13 13 13 13 13 14 14 14 14
17 17 17 17 17 17 16 16 16 16 16 16 15 15 15 15 15 15 15 15 15 15 15 15 15 15 14 14 14 14 13 13 13 13 14 14 14 14 14 14 14 14
17 17 17 17 17 16 16 16 16 16 16 16 16 16 15 15 15 15 15 15 15 15 15 15 15 15 15 14 14 14 14 14 14 14 14 14 14 14 14 14 14 14
Height
3192 3195 3197 3200 3202 3204 3206 3207 3209 3210 3212 3213 3214 3215 3216 3217 3218 3219 3220 3221 3222 3222 3223 3225 3226 3228 3229 3230 3231 3232 3232 3233 3234 3234 3235 3235 3236 3236 3237 3237 3238 3238
3190 3193 3195 3198 3200 3202 3204 3206 3207 3209 3210 3212 3213 3214 3215 3216 3216 3217 3218 3219 3220 3221 3222 3223 3224 3226 3227 3228 3230 3231 3231 3232 3233 3234 3234 3235 3235 3236 3236 3237 3237 3238
3189 3191 3193 3196 3198 3201 3203 3205 3206 3207 3209 3210 3211 3212 3213 3214 3215 3216 3217 3218 3219 3220 3221 3222 3223 3224 3226 3227 3228 3229 3230 3231 3232 3233 3234 3234 3235 3235 3236 3236 3237 3237
3187 3189 3191 3194 3197 3199 3201 3203 3204 3205 3207 3208 3210 3211 3212 3213 3214 3215 3216 3216 3217 3218 3219 3220 3222 3223 3224 3225 3227 3228 3229 3230 3231 3232 3233 3233 3234 3234 3235 3235 3236 3237
3185 3187 3189 3192 3195 3197 3198 3200 3202 3204 3205 3207 3209 3210 3211 3212 3213 3214 3215 3215 3217 3218 3218 3219 3220 3222 3223 3224 3225 3227 3228 3229 3230 3231 3232 3233 3233 3234 3234 3235 3235 3236
3183 3185 3188 3190 3192 3194 3196 3198 3200 3202 3203 3205 3207 3208 3210 3211 3212 3213 3214 3215 3216 3217 3218 3219 3220 3221 3222 3223 3224 3225 3227 3228 3228 3229 3230 3231 3232 3233 3233 3234 3234 3235
3181 3183 3186 3188 3190 3192 3194 3196 3198 3200 3202 3203 3205 3206 3208 3209 3211 3212 3213 3214 3215 3216 3217 3218 3219 3220 3221 3222 3223 3224 3225 3226 3227 3228 3229 3230 3230 3231 3232 3233 3233 3234
3179 3182 3184 3186 3188 3190 3192 3194 3196 3198 3200 3201 3202 3204 3206 3208 3209 3211 3212 3213 3214 3215 3216 3217 3218 3219 3220 3221 3222 3223 3224 3225 3226 3226 3227 3228 3229 3230 3231 3231 3232 3233
3177 3179 3181 3183 3185 3187 3190 3192 3194 3196 3198 3199 3201 3203 3204 3206 3208 3209 3210 3211 3213 3214 3215 3216 3217 3218 3219 3220 3221 3222 3223 3224 3225 3225 3226 3227 3228 3228 3229 3229 3230 3231
3175 3177 3179 3180 3183 3185 3187 3190 3192 3194 3195 3197 3199 3201 3202 3204 3206 3207 3209 3210 3211 3212 3213 3215 3216 3217 3218 3219 3220 3221 3222 3223 3224 3225 3225 3226 3226 3227 3228 3228 3228 3229
3172 3174 3176 3178 3181 3183 3185 3188 3190 3191 3193 3195 3197 3199 3201 3203 3204 3205 3207 3208 3209 3211 3212 3213 3215 3216 3217 3218 3219 3220 3221 3222 3223 3224 3224 3225 3225 3226 3226 3227 3227 3227
3170 3172 3174 3176 3179 3181 3183 3185 3187 3189 3191 3193 3195 3197 3199 3200 3202 3203 3205 3206 3208 3209 3211 3212 3213 3214 3215 3216 3218 3219 3220 3221 3222 3222 3223 3224 3224 3225 3225 3225 3225 3226
3169 3171 3173 3175 3177 3179 3181 3183 3185 3187 3188 3190 3193 3194 3196 3198 3199 3201 3203 3205 3206 3208 3209 3210 3211 3212 3213 3214 3216 3217 3218 3219 3220 3221 3221 3222 3223 3223 3223 3223 3224 3224
3168 3170 3172 3174 3176 3177 3179 3181 3183 3184 3186 3188 3190 3192 3194 3195 3197 3199 3201 3203 3204 3206 3207 3208 3209 3210 3211 3212 3213 3215 3216 3217 3218 3219 3219 3220 3221 3221 3221 3221 3222 3222
3167 3168 3170 3172 3173 3175 3177 3178 3180 3182 3184 3186 3187 3189 3191 3193 3195 3197 3198 3200 3201 3203 3204 3206 3206 3207 3209 3210 3212 3213 3214 3215 3216 3216 3217 3218 3218 3219 3219 3219 3219 3219
3165 3167 3168 3170 3171 3173 3175 3176 3178 3180 3181 3183 3185 3186 3189 3191 3192 3194 3195 3197 3198 3200 3202 3203 3203 3205 3207 3209 3210 3211 3212 3213 3213 3214 3215 3215 3216 3216 3216 3216 3216 3216
3163 3165 3166 3168 3169 3171 3173 3174 3176 3177 3179 3181 3182 3184 3186 3188 3189 3191 3192 3194 3196 3197 3198 3200 3201 3203 3205 3207 3208 3209 3210 3210 3211 3211 3212 3212 3213 3213 3213 3213 3213 3213
3161 3163 3164 3165 3167 3169 3171 3172 3174 3175 3176 3178 3180 3181 3183 3185 3186 3188 3189 3191 3193 3194 3195 3197 3198 3201 3203 3204 3206 3207 3208 3208 3208 3209 3209 3209 3209 3210 3210 3210 3210 3210
3159 3160 3161 3163 3165 3167 3169 3170 3171 3172 3174 3175 3177 3179 3181 3182 3183 3185 3187 3188 3190 3191 3193 3194 3196 3198 3200 3202 3203 3204 3205 3206 3206 3206 3206 3206 3206 3207 3207 3207 3208 3208
3156 3158 3159 3161 3163 3165 3166 3167 3169 3170 3172 3173 3175 3176 3178 3179 3181 3183 3184 3186 3187 3188 3190 3191 3193 3195 3197 3199 3200 3202 3202 3203 3203 3203 3203 3203 3203 3204 3204 3205 3205 3206
3154 3155 3157 3159 3160 3162 3163 3165 3166 3168 3169 3171 3172 3174 3175 3177 3178 3180 3181 3183 3184 3186 3187 3188 3190 3193 3194 3196 3197 3199 3199 3199 3199 3200 3200 3200 3201 3201 3202 3203 3203 3203
3151 3152 3154 3156 3158 3159 3160 3162 3164 3166 3167 3169 3170 3171 3173 3174 3176 3177 3179 3180 3182 3183 3184 3186 3188 3190 3192 3193 3194 3196 3196 3196 3196 3196 3197 3197 3198 3199 3200 3200 3200 3200
3148 3149 3151 3153 3155 3156 3158 3160 3162 3163 3165 3166 3167 3169 3170 3171 3173 3175 3176 3178 3179 3180 3182 3183 3186 3188 3189 3190 3192 3192 3192 3192 3193 3193 3194 3194 3195 3196 3197 3197 3197 3198
3145 3146 3148 3150 3151 3153 3155 3157 3159 3160 3162 3163 3165 3166 3167 3169 3171 3172 3174 3175 3176 3177 3179 3181 3183 3185 3186 3187 3188 3189 3189 3189 3190 3191 3191 3191 3192 3193 3194 3194 3194 3195
3142 3144 3145 3147 3148 3150 3152 3153 3155 3157 3159 3160 3162 3163 3165 3166 3168 3169 3170 3172 3173 3175 3176 3177 3179 3182 3183 3184 3185 3186 3186 3187 3188 3187 3188 3188 3189 3190 3191 3191 3191 3191
3140 3142 3143 3144 3145 3147 3148 3150 3152 3153 3155 3157 3158 3160 3162 3163 3164 3165 3167 3168 3170 3171 3173 3174 3176 3178 3180 3181 3182 3183 3183 3184 3184 3184 3184 3185 3186 3186 3187 3187 3187 3188
Wind_Speed
27 27 26 26 25 23 22 20 18 17 16 16 16 15 15 14 15 17 16 15 15 16 17 19 19 18 17 16 16 16 16 16 16 14 13 12 11 10 9 8 7 6
28 27 27 26 25 24 22 20 19 17 16 16 15 15 15 15 16 17 17 17 16 16 18 19 20 19 18 17 17 18 17 17 17 16 14 14 13 11 10 8 7 6
29 29 28 27 25 23 22 21 20 18 17 17 16 16 16 16 16 17 18 18 17 17 18 19 20 20 19 18 18 19 19 18 17 17 16 15 14 13 11 10 9 7
30 30 28 27 25 24 23 22 21 20 19 18 17 16 17 16 16 17 18 19 18 18 18 19 20 20 19 19 18 19 20 20 19 18 18 17 16 15 13 12 11 9
31 30 29 27 26 25 25 24 22 21 20 18 18 17 17 17 16 16 17 18 18 17 17 18 18 19 19 19 18 18 20 20 20 19 18 17 16 16 15 14 12 11
32 31 30 29 28 27 26 25 23 22 21 19 19 19 18 18 16 14 15 15 15 16 16 16 16 17 17 18 18 18 18 19 20 20 19 18 17 17 17 16 14 13
33 32 31 30 29 29 27 26 25 24 22 21 21 20 20 19 16 14 13 14 14 14 14 14 14 15 15 16 17 17 18 18 19 19 19 19 19 18 17 17 15 15
33 32 31 31 30 30 29 28 27 25 24 23 22 22 21 21 18 16 14 14 14 13 13 13 13 14 14 15 15 16 17 17 17 17 17 18 19 18 18 17 17 16
33 33 32 32 31 31 30 29 27 26 25 25 24 22 22 22 21 19 17 16 15 15 14 14 14 14 14 14 14 14 15 15 14 14 14 15 16 16 16 17 18 17
35 34 34 33 32 31 30 29 28 26 26 25 24 24 23 23 23 22 20 19 18 17 16 15 14 14 14 14 14 13 13 12 12 11 11 11 11 12 13 15 16 17
35 35 35 34 33 32 31 30 28 27 27 26 25 25 24 24 24 24 23 22 20 18 17 16 15 15 14 14 13 13 12 12 11 11 10 10 10 11 11 12 13 14
35 35 35 34 33 32 31 30 29 29 28 27 26 26 25 25 25 25 25 23 21 20 19 18 17 17 16 15 15 14 14 13 12 11 11 11 11 11 12 13 13 13
33 33 33 33 32 32 31 31 30 30 29 28 26 26 26 26 26 26 25 23 22 21 20 19 19 19 19 18 17 16 15 14 13 12 12 12 11 12 13 14 15 15
28 29 29 30 31 31 31 31 31 30 30 28 27 27 27 26 27 26 26 24 23 23 22 21 21 21 21 20 19 18 17 15 14 14 13 13 13 14 15 16 17 17
24 26 27 28 29 30 30 30 30 30 29 29 28 28 27 26 26 27 27 26 25 24 24 23 23 23 22 20 19 18 17 16 16 15 15 16 16 17 17 18 19 19
23 23 25 26 27 28 28 28 29 29 29 29 29 28 27 27 26 27 27 27 27 26 26 25 25 24 22 20 19 18 18 18 17 17 18 18 18 19 19 20 20 21
23 23 23 24 24 25 25 26 27 28 28 29 29 28 28 27 27 27 27 27 27 28 27 27 26 24 22 21 20 19 19 19 19 19 19 20 20 20 20 20 20 20
25 24 24 24 24 23 23 24 25 26 27 28 28 28 28 28 28 27 26 26 27 28 28 28 26 24 22 21 20 20 19 19 20 20 20 20 20 19 18 17 17 16
28 27 26 25 24 24 23 24 24 25 26 26 26 27 28 28 28 27 26 26 26 27 27 27 25 24 22 21 20 19 19 20 20 20 21 20 19 17 15 14 14 14
30 29 28 26 25 24 24 24 24 24 24 24 25 26 26 26 26 26 26 26 25 25 25 25 24 22 21 20 19 19 19 20 21 21 21 20 18 17 16 15 15 16
31 31 30 29 28 26 26 26 25 25 24 24 24 25 24 24 25 25 25 25 25 25 25 24 23 21 20 20 19 19 19 21 22 23 22 21 19 18 17 17 18 19
31 32 32 31 31 30 29 28 26 26 25 25 25 25 24 24 24 24 24 25 25 25 25 24 22 21 21 20 20 20 22 23 24 24 23 22 20 19 19 19 20 21
29 31 33 33 33 33 32 30 29 27 27 26 26 26 25 25 24 24 24 24 24 25 25 24 22 22 22 22 22 23 25 26 25 24 24 23 22 21 22 22 22 22
27 29 31 33 34 34 34 33 32 31 30 29 29 28 27 26 25 25 25 25 25 25 25 24 24 23 23 24 24 26 27 27 26 25 26 25 24 24 24 24 24 24
24 27 29 31 33 34 35 35 35 35 34 33 32 30 29 28 27 27 27 27 26 26 26 26 25 24 25 26 26 28 28 28 27 27 28 27 26 26 26 26 26 26
20 23 25 27 29 31 32 34 35 35 36 36 35 34 33 31 30 30 29 28 28 28 28 28 27 26 27 27 28 29 29 29 29 30 30 29 28 28 29 29 28 28
Wind_Direction
202 205 208 210 211 213 215 216 215 214 216 222 227 234 236 234 232 233 233 230 225 221 216 213 211 211 211 209 207 204 199 196 196 192 185 178 175 173 171 167 158 141
202 204 207 210 211 213 215 217 218 215 214 217 222 227 231 230 228 228 228 226 223 218 214 213 212 212 212 211 211 209 205 201 200 198 193 188 185 183 184 183 178 167
203 205 207 209 211 212 214 217 219 217 213 213 215 219 225 227 225 223 223 222 221 216 212 212 213 213 212 212 212 211 209 207 205 204 201 199 196 193 195 196 194 191
203 205 207 209 210 211 212 215 217 217 214 212 211 214 220 225 224 222 221 221 220 216 212 211 212 213 212 211 211 210 210 210 209 210 208 207 206 204 206 206 203 206
204 205 207 208 209 211 212 212 213 215 214 211 209 211 218 224 224 222 221 222 220 218 215 213 212 214 212 211 210 209 210 212 213 215 214 214 215 214 216 216 213 216
206 206 207 207 209 211 212 212 212 213 213 210 208 210 216 223 225 221 219 220 219 217 215 214 214 214 212 210 209 208 210 213 216 219 219 221 224 224 225 225 223 224
208 207 207 208 210 212 212 212 212 211 211 210 209 209 212 220 225 221 217 215 214 211 207 207 209 210 209 208 207 208 210 212 216 221 223 225 229 230 230 231 230 230
211 209 209 209 211 213 213 213 212 210 210 211 210 208 209 215 221 222 219 215 213 209 201 197 197 198 201 200 200 203 207 211 216 221 223 226 231 234 236 238 238 236
212 211 211 211 212 214 214 214 213 211 211 213 212 210 210 212 216 220 220 217 215 212 205 198 194 193 195 192 189 192 198 204 210 215 218 223 229 234 239 242 244 243
213 212 213 214 214 215 215 215 215 214 214 214 214 214 212 211 214 217 219 219 216 213 211 206 200 198 197 193 188 189 191 195 202 207 212 217 223 228 234 241 245 246
214 214 214 216 216 216 216 216 216 216 217 216 215 216 215 213 214 215 218 220 219 216 214 213 210 209 207 202 198 199 200 203 208 211 216 222 227 232 237 242 246 247
216 216 216 217 218 219 218 218 218 218 219 218 217 217 217 217 216 216 217 219 219 219 217 216 217 217 217 215 215 217 217 218 220 221 224 229 234 240 246 250 252 251
219 219 219 220 221 221 221 220 220 220 221 221 220 219 218 219 219 219 219 218 218 219 219 218 220 221 222 223 224 227 229 231 233 235 236 239 243 249 253 255 257 256
221 222 223 223 223 224 224 223 223 223 223 223 222 222 221 221 221 221 222 221 220 220 219 220 222 222 223 225 227 230 234 236 240 244 249 254 259 263 264 263 261 258
219 221 222 223 224 225 225 226 227 226 226 226 225 226 224 223 223 223 223 223 222 222 221 222 223 223 223 225 228 232 237 242 246 251 257 264 268 270 271 270 267 263
219 220 222 223 224 225 225 226 227 228 228 229 229 229 228 226 225 224 224 224 223 224 224 224 225 224 223 226 230 235 241 247 253 258 264 268 271 271 270 269 267 264
220 221 222 224 225 225 225 226 227 228 230 230 231 231 230 229 228 227 226 225 225 225 225 226 227 226 226 228 232 237 244 250 257 263 267 269 270 268 266 263 261 259
223 222 223 224 225 225 225 226 227 228 229 230 231 232 232 231 231 231 229 227 226 226 226 227 228 228 228 230 233 238 245 252 259 264 267 266 264 262 259 256 256 257
225 225 225 226 226 226 227 227 228 229 229 229 230 231 232 232 233 233 232 230 229 228 227 228 228 228 228 230 233 239 246 253 259 261 260 258 254 253 253 254 258 262
226 227 228 228 228 228 228 228 229 230 231 231 231 231 231 232 233 234 233 233 231 230 228 228 227 226 227 230 235 241 247 251 253 252 250 249 249 251 256 262 268 271
227 228 229 230 230 230 229 229 230 231 232 233 233 233 232 232 233 233 234 234 233 232 230 228 226 225 228 233 237 241 244 243 243 243 244 245 250 257 263 268 272 274
227 228 230 231 231 231 231 231 230 231 232 233 235 235 233 232 232 231 231 232 232 232 232 229 226 227 231 234 236 237 237 236 236 238 242 248 253 259 265 268 270 272
227 229 230 231 232 233 233 233 233 232 233 234 235 236 235 235 233 232 231 231 232 232 233 231 228 229 232 233 232 231 230 231 235 239 245 250 255 260 264 265 267 270
228 230 231 232 234 235 235 235 235 234 234 234 235 236 236 236 236 235 233 232 232 232 233 233 231 230 231 231 228 226 228 230 235 241 246 250 255 258 262 265 267 271
227 228 230 232 234 235 236 236 236 236 236 236 236 236 236 236 237 237 236 234 233 233 234 234 233 230 231 230 226 225 229 233 238 244 247 251 255 259 262 265 267 271
226 226 227 229 231 233 234 235 237 237 237 238 238 238 237 236 237 238 238 236 235 235 234 235 234 232 230 230 228 228 232 236 242 246 249 253 258 261 263 265 268 273